EW4787 Weather Reports


Display with metric or nautical units.
time (UTC)temp
F
wind
direction
speed
MPH
gust
MPH
rain 1hr
in
rain 24hr
in
rain mn
in
humidity
%
barometer
mb
20260507203013 0 360 0.0 1.0 0.00 0.00 0.00 1011.9
20260507201505 0 360 0.0 0.0 0.00 0.00 0.00 1011.8
20260507200004 0 360 0.0 0.0 0.00 0.00 0.00 1011.5
20260507194504 0 360 0.0 0.0 0.00 0.00 0.00 1011.4
20260507193003 0 360 0.0 0.0 0.00 0.00 0.00 1011.3
20260507191503 0 360 0.0 0.0 0.00 0.00 0.00 1011.2
20260507190004 0 360 0.0 0.0 0.00 0.00 0.00 1011.2
20260507184501 0 360 0.0 0.0 0.00 0.00 0.00 1011.1
20260507183002 0 360 0.0 2.0 0.00 0.00 0.00 1011.1
20260507181503 0 328 0.0 3.0 0.00 0.00 0.00 1011.1
20260507180100 0 281 0.0 2.0 0.00 0.00 0.00 1011.1
20260507174607 0 11 0.0 6.0 0.00 0.00 0.00 1010.9
20260507173102 0 51 0.0 5.0 0.00 0.00 0.00 1011.0
20260507171605 0 291 0.0 4.0 0.00 0.00 0.00 1011.0
20260507170057 0 306 0.0 0.0 0.00 0.00 0.00 1011.0
20260507164557 0 332 0.0 4.0 0.00 0.00 0.00 1011.1
20260507163113 0 90 1.0 4.0 0.00 0.00 0.00 1011.1
20260507161656 0 46 2.0 4.0 0.00 0.00 0.00 1011.0
20260507160056 0 61 2.0 7.0 0.00 0.00 0.00 1011.1
20260507154555 0 78 1.0 5.0 0.00 0.00 0.00 1011.1
20260507153054 0 74 1.0 5.0 0.00 0.00 0.00 1011.1
20260507151554 0 25 1.0 5.0 0.00 0.00 0.00 1011.1
20260507150053 0 48 0.0 6.0 0.00 0.00 0.00 1011.2
20260507144615 0 63 0.0 5.0 0.00 0.00 0.00 1011.2
20260507143054 0 64 1.0 5.0 0.00 0.00 0.00 1011.2
20260507141612 0 30 1.0 5.0 0.00 0.00 0.00 1011.2
20260507140051 0 66 0.0 0.0 0.00 0.00 0.00 1011.3
20260507134551 0 51 0.0 0.0 0.00 0.00 0.00 1011.4
20260507133050 0 49 0.0 0.0 0.00 0.00 0.00 1011.4
20260507131549 0 16 0.0 0.0 0.00 0.00 0.00 1011.4
20260507130051 0 336 0.0 0.0 0.00 0.00 0.00 1011.4
20260507124548 0 57 0.0 0.0 0.00 0.00 0.00 1011.4
20260507123049 0 18 0.0 0.0 0.00 0.00 0.00 1011.5
20260507121542 0 334 0.0 0.0 0.00 0.00 0.00 1011.5
20260507120037 0 70 0.0 0.0 0.00 0.00 0.00 1011.5
20260507114535 0 342 0.0 0.0 0.00 0.00 0.00 1011.5
20260507113029 0 5 0.0 0.0 0.00 0.00 0.00 1011.5
20260507111535 0 344 0.0 0.0 0.00 0.00 0.00 1011.5
20260507110020 0 338 0.0 0.0 0.00 0.00 0.00 1011.5
20260507104519 0 53 0.0 5.0 0.00 0.00 0.00 1011.5
20260507103010 0 60 4.0 7.0 0.00 0.00 0.00 1011.7
20260507101507 0 5 0.0 4.0 0.00 0.00 0.00 1011.7
20260507100002 0 347 0.0 0.0 0.00 0.00 0.00 1011.7
20260507094558 0 338 0.0 0.0 0.00 0.00 0.00 1011.7
20260507093059 0 39 1.0 5.0 0.00 0.00 0.00 1011.6
20260507091554 0 219 0.0 3.0 0.00 0.00 0.00 1011.7
20260507090044 0 193 0.0 3.0 0.00 0.00 0.00 1011.8
20260507084544 0 151 0.0 2.0 0.00 0.00 0.00 1011.7
20260507083036 0 144 0.0 0.0 0.00 0.00 0.00 1011.6
20260507081531 0 76 0.0 0.0 0.00 0.00 0.00 1011.5
20260507080027 0 76 0.0 0.0 0.00 0.00 0.00 1011.5
20260507074522 0 76 0.0 0.0 0.00 0.00 0.00 1011.5
20260507073018 0 47 0.0 0.0 0.00 0.00 0.00 1011.5
20260507071513 0 47 0.0 0.0 0.00 0.00 0.00 1011.4
20260507070013 0 47 0.0 0.0 0.00 0.00 0.00 1011.3
20260507064505 0 47 0.0 0.0 0.00 0.00 0.00 1011.3
20260507063100 0 47 0.0 0.0 0.00 0.00 0.00 1011.3
20260507061555 0 47 0.0 0.0 0.00 0.00 0.00 1011.2
20260507060056 0 47 0.0 0.0 0.00 0.00 0.00 1011.0
20260507054550 0 47 0.0 0.0 0.00 0.00 0.00 1010.9
20260507053047 0 47 0.0 0.0 0.00 0.00 0.00 1010.8
20260507051538 0 47 0.0 0.0 0.00 0.00 0.00 1010.8
20260507050034 0 47 0.0 0.0 0.00 0.00 0.00 1010.8
20260507044545 0 47 0.0 0.0 0.00 0.00 0.00 1010.6
20260507043024 0 47 0.0 0.0 0.00 0.00 0.00 1010.6
20260507041520 0 47 0.0 0.0 0.00 0.00 0.00 1010.6
20260507040016 0 47 0.0 0.0 0.00 0.00 0.00 1010.5
20260507034512 0 47 0.0 0.0 0.00 0.00 0.00 1010.5
20260507033008 0 47 0.0 0.0 0.00 0.00 0.00 1010.4
20260507031503 0 47 0.0 0.0 0.00 0.00 0.00 1010.4
20260507030104 0 47 0.0 0.0 0.00 0.00 0.00 1010.4
20260507024558 0 47 0.0 0.0 0.00 0.00 0.00 1010.3
20260507023050 0 47 0.0 0.0 0.00 0.00 0.00 1010.3
20260507021546 0 47 0.0 0.0 0.00 0.00 0.00 1010.2
20260507020048 0 47 0.0 0.0 0.00 0.00 0.00 1010.1
20260507014537 0 47 0.0 0.0 0.00 0.00 0.00 1010.1
20260507013033 0 47 0.0 0.0 0.00 0.00 0.00 1010.1
20260507011529 0 47 0.0 0.0 0.00 0.00 0.00 1010.1
20260507010028 0 47 0.0 0.0 0.00 0.00 0.00 1010.1
20260507004521 0 47 0.0 0.0 0.00 0.00 0.00 1010.1
20260507003020 0 47 0.0 0.0 0.00 0.00 0.00 1010.2
20260507001520 0 47 0.0 0.0 0.00 0.00 0.00 1010.1
20260507000011 0 47 0.0 0.0 0.00 0.00 0.00 1010.2
20260506234506 0 47 0.0 0.0 0.00 0.00 0.00 1010.1
20260506233102 0 47 0.0 0.0 0.00 0.00 0.00 1010.1
20260506231553 0 47 0.0 0.0 0.00 0.00 0.00 1010.0
20260506230048 0 47 0.0 0.0 0.00 0.00 0.00 1010.1
20260506224558 0 47 0.0 0.0 0.00 0.00 0.00 1010.0
20260506223040 0 47 0.0 0.0 0.00 0.00 0.00 1010.0
20260506221536 0 47 0.0 0.0 0.00 0.00 0.00 1009.8
20260506220036 0 47 0.0 0.0 0.00 0.00 0.00 1009.8
20260506214526 0 47 0.0 0.0 0.00 0.00 0.00 1009.7
20260506213022 0 47 0.0 0.0 0.00 0.00 0.00 1009.7
20260506211518 0 47 0.0 0.0 0.00 0.00 0.00 1009.6
20260506210020 0 47 0.0 0.0 0.00 0.00 0.00 1009.5
20260506204510 0 47 0.0 0.0 0.00 0.00 0.00 1009.5